,,Stat5,,Stat1,,Stat2,,Stat3,,Stat4,,Wind1,,Wind1,
time,status,PA1M_AVG,status,PR1M_SUM,status,RH1M_AVG,status,SR1M_AVG,status,TA1M_AVG,status,W1dAve1m,status,W1sAve1m,
2002-06-28, 00:00:00,VALID,920.453,VALID,0,VALID,95.603,VALID,-0.101885,VALID,21.1176,VALID,17,VALID,1.37871,
2002-06-28, 00:01:00,VALID,920.465,VALID,0,VALID,95.5522,VALID,-0.0849042,VALID,21.1039,VALID,16,VALID,1.08348,
2002-06-28, 00:02:00,VALID,920.495,VALID,0,VALID,95.5624,VALID,-0.0679233,VALID,21.091,VALID,12,VALID,1.16958,
2002-06-28, 00:03:00,VALID,920.51,VALID,0,VALID,95.5713,VALID,-0.0849042,VALID,21.0686,VALID,17,VALID,0.607813,
2002-06-28, 00:04:00,VALID,920.5,VALID,0,VALID,95.6654,VALID,-0.0849042,VALID,21.0751,VALID,19,VALID,0.317708,
2002-06-28, 00:05:00,VALID,920.459,VALID,0,VALID,95.6425,VALID,-0.0849042,VALID,21.0708,VALID,19,VALID,0.25,
2002-06-28, 00:06:00,VALID,920.398,VALID,0,VALID,95.5395,VALID,-0.101885,VALID,21.0621,VALID,333,VALID,0.566992,
2002-06-28, 00:07:00,VALID,920.337,VALID,0,VALID,95.5763,VALID,-0.0509425,VALID,21.043,VALID,351,VALID,0.633705,
2002-06-28, 00:08:00,VALID,920.269,VALID,0,VALID,95.5636,VALID,-0.0849042,VALID,21.0266,VALID,344,VALID,0.670267,
2002-06-28, 00:09:00,VALID,920.187,VALID,0,VALID,95.5802,VALID,-0.101885,VALID,20.9846,VALID,332,VALID,0.684766,
2002-06-28, 00:10:00,VALID,920.14,VALID,0,VALID,95.6005,VALID,-0.101885,VALID,20.9684,VALID,336,VALID,0.547822,
2002-06-28, 00:11:00,VALID,920.113,VALID,0,VALID,95.7213,VALID,-0.0169808,VALID,20.9517,VALID,335,VALID,0.557813,
2002-06-28, 00:12:00,VALID,920.106,VALID,0,VALID,95.7111,VALID,0,VALID,20.9345,VALID,354,VALID,0.530078,
2002-06-28, 00:13:00,VALID,920.1,VALID,0,VALID,95.72,VALID,0,VALID,20.9151,VALID,6,VALID,0.806696,
2002-06-28, 00:14:00,VALID,920.104,VALID,0,VALID,95.8065,VALID,0,VALID,20.9186,VALID,12,VALID,0.808594,
2002-06-28, 00:15:00,VALID,920.135,VALID,0,VALID,95.9006,VALID,0,VALID,20.9084,VALID,16,VALID,0.528711,
2002-06-28, 00:16:00,VALID,920.174,VALID,0,VALID,95.8714,VALID,0.0169808,VALID,20.9087,VALID,14,VALID,0.341619,
2002-06-28, 00:17:00,VALID,920.219,VALID,0,VALID,95.8612,VALID,0,VALID,20.9124,VALID,16,VALID,0.787723,
2002-06-28, 00:18:00,VALID,920.217,VALID,0,VALID,95.8383,VALID,0,VALID,20.9254,VALID,25,VALID,1.04062,
2002-06-28, 00:19:00,VALID,920.222,VALID,0,VALID,95.8116,VALID,0.0169808,VALID,20.9119,VALID,21,VALID,0.905804,
2002-06-28, 00:20:00,VALID,920.221,VALID,0,VALID,95.706,VALID,0.0169808,VALID,20.9089,VALID,18,VALID,0.502298,
2002-06-28, 00:21:00,VALID,920.18,VALID,0,VALID,95.6908,VALID,0,VALID,20.896,VALID,26,VALID,0.394141,
2002-06-28, 00:22:00,VALID,920.147,VALID,0,VALID,95.72,VALID,0,VALID,20.8866,VALID,36,VALID,0.372396,
2002-06-28, 00:23:00,VALID,920.112,VALID,0,VALID,95.8103,VALID,0.0169808,VALID,20.8801,VALID,37,VALID,0.389732,
2002-06-28, 00:24:00,VALID,920.079,VALID,0,VALID,95.9108,VALID,0.0169808,VALID,20.8896,VALID,39,VALID,0.414648,
2002-06-28, 00:25:00,VALID,920.051,VALID,0,VALID,95.9133,VALID,0,VALID,20.8923,VALID,39,VALID,0.260714,
2002-06-28, 00:26:00,VALID,920.065,VALID,0,VALID,95.7671,VALID,0.0169808,VALID,20.906,VALID,37,VALID,0.35409,
2002-06-28, 00:27:00,VALID,920.077,VALID,0,VALID,95.6882,VALID,0,VALID,20.9055,VALID,25,VALID,0.592773,
2002-06-28, 00:28:00,VALID,920.078,VALID,0,VALID,95.6234,VALID,0,VALID,20.9057,VALID,17,VALID,0.731771,
2002-06-28, 00:29:00,VALID,920.079,VALID,0,VALID,95.4021,VALID,0,VALID,20.8863,VALID,9,VALID,1.00781,
2002-06-28, 00:30:00,VALID,920.071,VALID,0,VALID,95.3869,VALID,0,VALID,20.8575,VALID,1,VALID,0.950586,
2002-06-28, 00:31:00,VALID,920.076,VALID,0,VALID,95.3767,VALID,0,VALID,20.8376,VALID,341,VALID,0.875893,
2002-06-28, 00:32:00,VALID,920.075,VALID,0,VALID,95.4644,VALID,0.0169808,VALID,20.8055,VALID,344,VALID,0.72909,
2002-06-28, 00:33:00,VALID,920.079,VALID,0,VALID,95.5789,VALID,0.0169808,VALID,20.7924,VALID,11,VALID,0.503906,
2002-06-28, 00:34:00,VALID,920.072,VALID,0,VALID,95.6386,VALID,0.0169808,VALID,20.7891,VALID,333,VALID,0.578835,
2002-06-28, 00:35:00,VALID,920.079,VALID,0,VALID,95.7734,VALID,0.0169808,VALID,20.7926,VALID,5,VALID,0.54308,
2002-06-28, 00:36:00,VALID,920.086,VALID,0,VALID,95.8129,VALID,0.0339617,VALID,20.8088,VALID,17,VALID,0.444531,
2002-06-28, 00:37:00,VALID,920.104,VALID,0,VALID,95.7442,VALID,0.0169808,VALID,20.8182,VALID,6,VALID,0.196205,
2002-06-28, 00:38:00,VALID,920.121,VALID,0,VALID,95.7251,VALID,0,VALID,20.8349,VALID,4,VALID,0.371324,
2002-06-28, 00:39:00,VALID,920.119,VALID,0,VALID,95.6768,VALID,0.0169808,VALID,20.8352,VALID,7,VALID,0.236914,
2002-06-28, 00:40:00,VALID,920.117,VALID,0,VALID,95.6857,VALID,0,VALID,20.815,VALID,7,VALID,0.272491,
2002-06-28, 00:41:00,VALID,920.103,VALID,0,VALID,95.7238,VALID,0,VALID,20.8284,VALID,7,VALID,0.148884,
2002-06-28, 00:42:00,VALID,920.083,VALID,0,VALID,95.7175,VALID,-0.0169808,VALID,20.8282,VALID,6,VALID,0.378516,
2002-06-28, 00:43:00,VALID,920.046,VALID,0,VALID,95.6755,VALID,0,VALID,20.8317,VALID,7,VALID,0.309821,
2002-06-28, 00:44:00,VALID,920.015,VALID,0,VALID,95.5713,VALID,0,VALID,20.8185,VALID,7,VALID,0.263327,
2002-06-28, 00:45:00,VALID,919.994,VALID,0,VALID,95.617,VALID,0,VALID,20.809,VALID,12,VALID,0.333594,
2002-06-28, 00:46:00,VALID,919.943,VALID,0,VALID,95.6234,VALID,-0.0169808,VALID,20.8152,VALID,13,VALID,0.00899621,
2002-06-28, 00:47:00,VALID,919.925,VALID,0,VALID,95.6221,VALID,-0.0169808,VALID,20.8222,VALID,13,VALID,0,
2002-06-28, 00:48:00,VALID,919.889,VALID,0,VALID,95.5865,VALID,0,VALID,20.8152,VALID,13,VALID,0.000585938,
2002-06-28, 00:49:00,VALID,919.869,VALID,0,VALID,95.6005,VALID,0,VALID,20.8123,VALID,13,VALID,0.000669643,
2002-06-28, 00:50:00,VALID,919.84,VALID,0,VALID,95.6056,VALID,-0.0169808,VALID,20.8061,VALID,13,VALID,0.0422794,
2002-06-28, 00:51:00,VALID,919.8,VALID,0,VALID,95.556,VALID,-0.0169808,VALID,20.7762,VALID,13,VALID,0.377344,
2002-06-28, 00:52:00,VALID,919.768,VALID,0,VALID,95.6679,VALID,-0.0169808,VALID,20.7732,VALID,13,VALID,0.412642,
2002-06-28, 00:53:00,VALID,919.757,VALID,0,VALID,95.8001,VALID,0,VALID,20.7732,VALID,13,VALID,0.228125,
2002-06-28, 00:54:00,VALID,919.745,VALID,0,VALID,95.8179,VALID,-0.0339617,VALID,20.7829,VALID,13,VALID,0.472266,
2002-06-28, 00:55:00,VALID,919.72,VALID,0,VALID,95.7938,VALID,0.0169808,VALID,20.7902,VALID,13,VALID,0.326786,
2002-06-28, 00:56:00,VALID,919.718,VALID,0,VALID,95.7442,VALID,0,VALID,20.7635,VALID,14,VALID,0.258042,
2002-06-28, 00:57:00,VALID,919.708,VALID,0,VALID,95.6501,VALID,-0.0169808,VALID,20.738,VALID,13,VALID,0.465039,
2002-06-28, 00:58:00,VALID,919.698,VALID,0,VALID,95.6946,VALID,-0.0169808,VALID,20.7156,VALID,13,VALID,0.532197,
2002-06-28, 00:59:00,VALID,919.679,VALID,0,VALID,95.8904,VALID,-0.0169808,VALID,20.7094,VALID,21,VALID,0.714063,
2002-06-28, 01:00:00,VALID,919.656,VALID,0,VALID,96.0634,VALID,0,VALID,20.693,VALID,26,VALID,0.497461,
2002-06-28, 01:01:00,VALID,919.637,VALID,0,VALID,96.0824,VALID,0,VALID,20.6895,VALID,13,VALID,0.274777,
2002-06-28, 01:02:00,VALID,919.622,VALID,0,VALID,96.0685,VALID,-0.0169808,VALID,20.6704,VALID,8,VALID,0.0153952,
2002-06-28, 01:03:00,VALID,919.602,VALID,0,VALID,96.1676,VALID,-0.0169808,VALID,20.6671,VALID,8,VALID,0,
2002-06-28, 01:04:00,VALID,919.579,VALID,0,VALID,96.2083,VALID,0,VALID,20.6507,VALID,8,VALID,0.120975,
2002-06-28, 01:05:00,VALID,919.545,VALID,0,VALID,96.2414,VALID,-0.0169808,VALID,20.6744,VALID,12,VALID,0.364509,
2002-06-28, 01:06:00,VALID,919.538,VALID,0,VALID,96.1727,VALID,0,VALID,20.6542,VALID,24,VALID,0.43418,
2002-06-28, 01:07:00,VALID,919.512,VALID,0,VALID,96.1524,VALID,-0.0169808,VALID,20.6313,VALID,24,VALID,0.663393,
2002-06-28, 01:08:00,VALID,919.482,VALID,0,VALID,96.1486,VALID,-0.0169808,VALID,20.6281,VALID,22,VALID,0.854779,
2002-06-28, 01:09:00,VALID,919.481,VALID,0,VALID,96.2071,VALID,-0.0169808,VALID,20.6219,VALID,15,VALID,0.601172,
2002-06-28, 01:10:00,VALID,919.471,VALID,0,VALID,96.2414,VALID,0,VALID,20.6284,VALID,17,VALID,0.25071,
2002-06-28, 01:11:00,VALID,919.441,VALID,0,VALID,96.3012,VALID,-0.0679233,VALID,20.6289,VALID,18,VALID,0.136384,
2002-06-28, 01:12:00,VALID,919.428,VALID,0,VALID,96.2808,VALID,-0.101885,VALID,20.6267,VALID,18,VALID,0.00292969,
2002-06-28, 01:13:00,VALID,919.391,VALID,0,VALID,96.305,VALID,-0.118866,VALID,20.617,VALID,18,VALID,0.00133929,
2002-06-28, 01:14:00,VALID,919.354,VALID,0,VALID,96.3406,VALID,-0.101885,VALID,20.6302,VALID,18,VALID,0.00735294,
2002-06-28, 01:15:00,VALID,919.328,VALID,0,VALID,96.3927,VALID,-0.101885,VALID,20.6431,VALID,15,VALID,0.0392578,
2002-06-28, 01:16:00,VALID,919.296,VALID,0,VALID,96.4766,VALID,-0.101885,VALID,20.6463,VALID,13,VALID,0,
2002-06-28, 01:17:00,VALID,919.25,VALID,0,VALID,96.4932,VALID,-0.101885,VALID,20.6429,VALID,16,VALID,0.564286,
2002-06-28, 01:18:00,VALID,919.218,VALID,0,VALID,96.2999,VALID,-0.101885,VALID,20.6138,VALID,12,VALID,0.597656,
2002-06-28, 01:19:00,VALID,919.209,VALID,0,VALID,96.2249,VALID,-0.118866,VALID,20.5815,VALID,10,VALID,0.405134,
2002-06-28, 01:20:00,VALID,919.202,VALID,0,VALID,96.2172,VALID,-0.101885,VALID,20.5621,VALID,20,VALID,0.369945,
2002-06-28, 01:21:00,VALID,919.186,VALID,0,VALID,96.216,VALID,-0.101885,VALID,20.54,VALID,20,VALID,0.635352,
2002-06-28, 01:22:00,VALID,919.179,VALID,0,VALID,96.3902,VALID,-0.101885,VALID,20.5104,VALID,33,VALID,0.457623,
2002-06-28, 01:23:00,VALID,919.187,VALID,0,VALID,96.5122,VALID,-0.101885,VALID,20.5112,VALID,11,VALID,0.628571,
2002-06-28, 01:24:00,VALID,919.198,VALID,0,VALID,96.5542,VALID,-0.101885,VALID,20.4974,VALID,21,VALID,0.203906,
2002-06-28, 01:25:00,VALID,919.176,VALID,0,VALID,96.661,VALID,-0.101885,VALID,20.4883,VALID,21,VALID,0,
2002-06-28, 01:26:00,VALID,919.179,VALID,0,VALID,96.8009,VALID,-0.0169808,VALID,20.4929,VALID,337,VALID,0.157169,
2002-06-28, 01:27:00,VALID,919.173,VALID,0,VALID,96.9738,VALID,0,VALID,20.5252,VALID,249,VALID,0.129883,
2002-06-28, 01:28:00,VALID,919.174,VALID,0,VALID,97.0705,VALID,0,VALID,20.5245,VALID,246,VALID,0.298295,
2002-06-28, 01:29:00,VALID,919.203,VALID,0,VALID,97.0908,VALID,0,VALID,20.5379,VALID,246,VALID,0.040625,
2002-06-28, 01:30:00,VALID,919.194,VALID,0,VALID,97.0056,VALID,0.0169808,VALID,20.5282,VALID,288,VALID,0.156445,
2002-06-28, 01:31:00,VALID,919.188,VALID,0,VALID,96.9688,VALID,-0.0169808,VALID,20.5088,VALID,22,VALID,0.747321,
2002-06-28, 01:32:00,VALID,919.167,VALID,0,VALID,96.778,VALID,0,VALID,20.4832,VALID,14,VALID,0.758272,
2002-06-28, 01:33:00,VALID,919.177,VALID,0,VALID,96.7984,VALID,0,VALID,20.4569,VALID,22,VALID,1.05273,
2002-06-28, 01:34:00,VALID,919.182,VALID,0,VALID,96.9153,VALID,0,VALID,20.4803,VALID,16,VALID,0.713068,
2002-06-28, 01:35:00,VALID,919.214,VALID,0,VALID,96.9916,VALID,0,VALID,20.4835,VALID,10,VALID,0.0323661,
2002-06-28, 01:36:00,VALID,919.259,VALID,0,VALID,96.9624,VALID,-0.0169808,VALID,20.4832,VALID,11,VALID,0.204883,
2002-06-28, 01:37:00,VALID,919.28,VALID,0,VALID,96.9344,VALID,-0.0169808,VALID,20.484,VALID,12,VALID,0.114732,
2002-06-28, 01:38:00,VALID,919.302,VALID,0,VALID,97.0069,VALID,0,VALID,20.4671,VALID,92,VALID,0.293199,
2002-06-28, 01:39:00,VALID,919.329,VALID,0,VALID,97.1023,VALID,-0.0169808,VALID,20.4738,VALID,102,VALID,0.00742187,
2002-06-28, 01:40:00,VALID,919.353,VALID,0,VALID,97.1964,VALID,-0.0339617,VALID,20.4932,VALID,56,VALID,0.0553977,
2002-06-28, 01:41:00,VALID,919.38,VALID,0,VALID,97.2409,VALID,-0.0339617,VALID,20.5088,VALID,55,VALID,0.182812,
2002-06-28, 01:42:00,VALID,919.405,VALID,0,VALID,97.2294,VALID,0,VALID,20.519,VALID,37,VALID,0.556641,
2002-06-28, 01:43:00,VALID,919.418,VALID,0,VALID,97.2358,VALID,0,VALID,20.5516,VALID,30,VALID,0.300446,
2002-06-28, 01:44:00,VALID,919.422,VALID,0,VALID,97.1252,VALID,-0.0339617,VALID,20.5479,VALID,28,VALID,0.428998,
2002-06-28, 01:45:00,VALID,919.43,VALID,0,VALID,97.143,VALID,-0.0509425,VALID,20.5645,VALID,32,VALID,0.746289,
2002-06-28, 01:46:00,VALID,919.426,VALID,0,VALID,97.1493,VALID,-0.0339617,VALID,20.5774,VALID,17,VALID,0.254261,
2002-06-28, 01:47:00,VALID,919.439,VALID,0,VALID,97.1341,VALID,-0.0339617,VALID,20.5807,VALID,16,VALID,0.148214,
2002-06-28, 01:48:00,VALID,919.456,VALID,0,VALID,97.0794,VALID,-0.0339617,VALID,20.5772,VALID,16,VALID,0.371094,
2002-06-28, 01:49:00,VALID,919.435,VALID,0,VALID,97.0298,VALID,0,VALID,20.5802,VALID,17,VALID,0.71183,
2002-06-28, 01:50:00,VALID,919.435,VALID,0,VALID,96.97,VALID,0,VALID,20.5772,VALID,17,VALID,1.06089,
2002-06-28, 01:51:00,VALID,919.418,VALID,0,VALID,96.9115,VALID,-0.0169808,VALID,20.5804,VALID,10,VALID,1.09492,
2002-06-28, 01:52:00,VALID,919.417,VALID,0,VALID,96.9077,VALID,-0.0509425,VALID,20.574,VALID,2,VALID,0.892992,
2002-06-28, 01:53:00,VALID,919.409,VALID,0,VALID,96.7971,VALID,-0.0509425,VALID,20.5573,VALID,9,VALID,0.886607,
2002-06-28, 01:54:00,VALID,919.403,VALID,0,VALID,96.6737,VALID,-0.0339617,VALID,20.5451,VALID,357,VALID,0.870898,
2002-06-28, 01:55:00,VALID,919.415,VALID,0,VALID,96.7271,VALID,-0.0509425,VALID,20.5258,VALID,359,VALID,0.619196,
2002-06-28, 01:56:00,VALID,919.402,VALID,0,VALID,96.895,VALID,0.0509425,VALID,20.5309,VALID,9,VALID,0.375,
2002-06-28, 01:57:00,VALID,919.375,VALID,0,VALID,96.9853,VALID,0.0849042,VALID,20.5336,VALID,8,VALID,0.113281,
2002-06-28, 01:58:00,VALID,919.35,VALID,0,VALID,96.9967,VALID,0.0849042,VALID,20.553,VALID,358,VALID,0.0646307,
2002-06-28, 01:59:00,VALID,919.314,VALID,0,VALID,96.9726,VALID,0.0849042,VALID,20.5463,VALID,274,VALID,0.216295,
2002-06-28, 02:00:00,VALID,919.255,VALID,0,VALID,96.9815,VALID,0.101885,VALID,20.5533,VALID,274,VALID,0.0501953,
2002-06-28, 02:01:00,VALID,919.21,VALID,0,VALID,96.9827,VALID,0.0509425,VALID,20.5468,VALID,274,VALID,0.342857,
2002-06-28, 02:02:00,VALID,919.181,VALID,0,VALID,97.0171,VALID,0.0679233,VALID,20.5366,VALID,271,VALID,0.298024,
2002-06-28, 02:03:00,VALID,919.131,VALID,0,VALID,97.0031,VALID,0.0849042,VALID,20.5433,VALID,263,VALID,0.110547,
2002-06-28, 02:04:00,VALID,919.079,VALID,0,VALID,97.012,VALID,0.101885,VALID,20.5205,VALID,263,VALID,0.00236742,
2002-06-28, 02:05:00,VALID,919,VALID,0,VALID,97.0743,VALID,0.0849042,VALID,20.5371,VALID,263,VALID,0.0223214,
2002-06-28, 02:06:00,VALID,918.954,VALID,0,VALID,97.1074,VALID,0.101885,VALID,20.5369,VALID,263,VALID,0.227148,
2002-06-28, 02:07:00,VALID,918.927,VALID,0,VALID,97.1506,VALID,0.0849042,VALID,20.5334,VALID,253,VALID,0.508482,
2002-06-28, 02:08:00,VALID,918.875,VALID,0,VALID,97.1976,VALID,0.101885,VALID,20.521,VALID,235,VALID,0.672105,
2002-06-28, 02:09:00,VALID,918.843,VALID,0,VALID,97.2409,VALID,0.0679233,VALID,20.4884,VALID,243,VALID,0.619141,
2002-06-28, 02:10:00,VALID,918.798,VALID,0,VALID,97.2701,VALID,0.0849042,VALID,20.4531,VALID,233,VALID,0.390388,
2002-06-28, 02:11:00,VALID,918.783,VALID,0,VALID,97.4113,VALID,-0.0679233,VALID,20.4445,VALID,235,VALID,0.159821,
2002-06-28, 02:12:00,VALID,918.744,VALID,0,VALID,97.5321,VALID,-0.0169808,VALID,20.4614,VALID,236,VALID,0.0322266,
2002-06-28, 02:13:00,VALID,918.744,VALID,0,VALID,97.5944,VALID,-0.0339617,VALID,20.4512,VALID,278,VALID,0.10625,
2002-06-28, 02:14:00,VALID,918.719,VALID,0,VALID,97.5664,VALID,-0.0509425,VALID,20.4576,VALID,280,VALID,0.0386029,
2002-06-28, 02:15:00,VALID,918.698,VALID,0,VALID,97.5473,VALID,-0.0169808,VALID,20.448,VALID,280,VALID,0,
2002-06-28, 02:16:00,VALID,918.656,VALID,0,VALID,97.5473,VALID,-0.0169808,VALID,20.4509,VALID,280,VALID,0.0558712,
2002-06-28, 02:17:00,VALID,918.601,VALID,0,VALID,97.5295,VALID,-0.0509425,VALID,20.4609,VALID,280,VALID,0.179464,
2002-06-28, 02:18:00,VALID,918.566,VALID,0,VALID,97.5206,VALID,-0.0169808,VALID,20.4735,VALID,280,VALID,0.147852,
2002-06-28, 02:19:00,VALID,918.531,VALID,0,VALID,97.4545,VALID,0,VALID,20.4768,VALID,280,VALID,0.0238839,
2002-06-28, 02:20:00,VALID,918.494,VALID,0,VALID,97.3324,VALID,-0.0509425,VALID,20.4673,VALID,280,VALID,0,
2002-06-28, 02:21:00,VALID,918.447,VALID,0,VALID,97.2523,VALID,-0.0339617,VALID,20.4512,VALID,308,VALID,0.243359,
2002-06-28, 02:22:00,VALID,918.406,VALID,0,VALID,97.232,VALID,-0.0679233,VALID,20.4418,VALID,11,VALID,0.488163,
2002-06-28, 02:23:00,VALID,918.373,VALID,0,VALID,97.2167,VALID,-0.0339617,VALID,20.4286,VALID,12,VALID,0.47567,
2002-06-28, 02:24:00,VALID,918.347,VALID,0,VALID,97.2015,VALID,-0.0509425,VALID,20.4194,VALID,13,VALID,0.345508,
2002-06-28, 02:25:00,VALID,918.33,VALID,0,VALID,97.218,VALID,-0.0339617,VALID,20.4087,VALID,13,VALID,0.291518,
2002-06-28, 02:26:00,VALID,918.327,VALID,0,VALID,97.2142,VALID,0,VALID,20.4057,VALID,13,VALID,0.299862,
2002-06-28, 02:27:00,VALID,918.314,VALID,0,VALID,97.1569,VALID,-0.0339617,VALID,20.393,VALID,24,VALID,0.541211,
2002-06-28, 02:28:00,VALID,918.315,VALID,0,VALID,97.1493,VALID,-0.0169808,VALID,20.3764,VALID,25,VALID,0.201231,
2002-06-28, 02:29:00,VALID,918.32,VALID,0,VALID,97.1493,VALID,-0.0169808,VALID,20.3634,VALID,25,VALID,0.0361607,
2002-06-28, 02:30:00,VALID,918.329,VALID,0,VALID,97.1379,VALID,0,VALID,20.3572,VALID,117,VALID,0.223828,
2002-06-28, 02:31:00,VALID,918.311,VALID,0,VALID,97.1824,VALID,0,VALID,20.357,VALID,115,VALID,0.238839,
2002-06-28, 02:32:00,VALID,918.287,VALID,0,VALID,97.2625,VALID,-0.0169808,VALID,20.3605,VALID,41,VALID,0.089614,
2002-06-28, 02:33:00,VALID,918.29,VALID,0,VALID,97.2574,VALID,-0.0169808,VALID,20.3672,VALID,38,VALID,0.205859,
2002-06-28, 02:34:00,VALID,918.289,VALID,0,VALID,97.2002,VALID,-0.0339617,VALID,20.351,VALID,28,VALID,0.19768,
2002-06-28, 02:35:00,VALID,918.284,VALID,0,VALID,97.1824,VALID,0,VALID,20.3478,VALID,28,VALID,0.0439732,
2002-06-28, 02:36:00,VALID,918.276,VALID,0,VALID,97.176,VALID,0,VALID,20.3475,VALID,30,VALID,0.312891,
2002-06-28, 02:37:00,VALID,918.256,VALID,0,VALID,97.1722,VALID,-0.0169808,VALID,20.3642,VALID,21,VALID,0.337277,
2002-06-28, 02:38:00,VALID,918.283,VALID,0,VALID,97.1353,VALID,0,VALID,20.364,VALID,16,VALID,0.0422794,
2002-06-28, 02:39:00,VALID,918.308,VALID,0,VALID,97.1213,VALID,0,VALID,20.3736,VALID,18,VALID,0.109375,
2002-06-28, 02:40:00,VALID,918.343,VALID,0,VALID,97.1684,VALID,0,VALID,20.3766,VALID,34,VALID,0.0920928,
2002-06-28, 02:41:00,VALID,918.409,VALID,0,VALID,97.1582,VALID,-0.0169808,VALID,20.3866,VALID,44,VALID,0.212277,
2002-06-28, 02:42:00,VALID,918.474,VALID,0,VALID,97.1887,VALID,0.0169808,VALID,20.3895,VALID,48,VALID,0.294922,
2002-06-28, 02:43:00,VALID,918.533,VALID,0,VALID,97.2307,VALID,0,VALID,20.4025,VALID,21,VALID,0.282813,
2002-06-28, 02:44:00,VALID,918.594,VALID,0,VALID,97.2345,VALID,0,VALID,20.3925,VALID,11,VALID,0.00275735,
2002-06-28, 02:45:00,VALID,918.653,VALID,0,VALID,97.279,VALID,0.0169808,VALID,20.4027,VALID,11,VALID,0.106836,
2002-06-28, 02:46:00,VALID,918.679,VALID,0,VALID,97.3159,VALID,0,VALID,20.4156,VALID,11,VALID,0.0570549,
2002-06-28, 02:47:00,VALID,918.716,VALID,0,VALID,97.3655,VALID,0,VALID,20.4122,VALID,11,VALID,0,
2002-06-28, 02:48:00,VALID,918.732,VALID,0,VALID,97.4329,VALID,0,VALID,20.4353,VALID,11,VALID,0,
2002-06-28, 02:49:00,VALID,918.768,VALID,0,VALID,97.4253,VALID,0,VALID,20.4253,VALID,11,VALID,0,
2002-06-28, 02:50:00,VALID,918.765,VALID,0,VALID,97.3935,VALID,0,VALID,20.4189,VALID,11,VALID,0,
2002-06-28, 02:51:00,VALID,918.778,VALID,0,VALID,97.4354,VALID,0,VALID,20.4151,VALID,11,VALID,0,
2002-06-28, 02:52:00,VALID,918.789,VALID,0,VALID,97.471,VALID,0.0169808,VALID,20.4278,VALID,11,VALID,0.00449811,
2002-06-28, 02:53:00,VALID,918.784,VALID,0,VALID,97.4723,VALID,0,VALID,20.431,VALID,12,VALID,0.0821429,
2002-06-28, 02:54:00,VALID,918.793,VALID,0,VALID,97.4787,VALID,0.0169808,VALID,20.4434,VALID,343,VALID,0.239258,
2002-06-28, 02:55:00,VALID,918.826,VALID,0,VALID,97.5015,VALID,0.0169808,VALID,20.4542,VALID,325,VALID,0.0801339,
2002-06-28, 02:56:00,VALID,918.826,VALID,0,VALID,97.4863,VALID,0.0339617,VALID,20.4571,VALID,325,VALID,0,
2002-06-28, 02:57:00,VALID,918.832,VALID,0,VALID,97.3998,VALID,0,VALID,20.4412,VALID,343,VALID,0.326172,
2002-06-28, 02:58:00,VALID,918.827,VALID,0,VALID,97.3413,VALID,-0.0169808,VALID,20.4348,VALID,6,VALID,0.439157,
2002-06-28, 02:59:00,VALID,918.826,VALID,0,VALID,97.2739,VALID,-0.0169808,VALID,20.435,VALID,12,VALID,0.290402,
2002-06-28, 03:00:00,VALID,918.807,VALID,0,VALID,97.1887,VALID,-0.0339617,VALID,20.4116,VALID,12,VALID,0.625195,
2002-06-28, 03:01:00,VALID,918.793,VALID,0,VALID,97.0832,VALID,0,VALID,20.4057,VALID,12,VALID,0.554018,
2002-06-28, 03:02:00,VALID,918.805,VALID,0,VALID,97.0667,VALID,0,VALID,20.3992,VALID,14,VALID,0.341222,
2002-06-28, 03:03:00,VALID,918.808,VALID,0,VALID,97.0743,VALID,0,VALID,20.396,VALID,14,VALID,0.173047,
2002-06-28, 03:04:00,VALID,918.825,VALID,0,VALID,97.0501,VALID,0,VALID,20.3831,VALID,17,VALID,0.318182,
2002-06-28, 03:05:00,VALID,918.818,VALID,0,VALID,97.0934,VALID,0,VALID,20.3761,VALID,28,VALID,0.573438,
2002-06-28, 03:06:00,VALID,918.815,VALID,0,VALID,97.1315,VALID,0,VALID,20.3957,VALID,24,VALID,0.666016,
2002-06-28, 03:07:00,VALID,918.821,VALID,0,VALID,97.143,VALID,-0.0169808,VALID,20.4089,VALID,23,VALID,0.599777,
2002-06-28, 03:08:00,VALID,918.843,VALID,0,VALID,97.176,VALID,0.0169808,VALID,20.4087,VALID,20,VALID,0.765625,
2002-06-28, 03:09:00,VALID,918.836,VALID,0,VALID,97.1862,VALID,0,VALID,20.4221,VALID,4,VALID,0.610547,
2002-06-28, 03:10:00,VALID,918.825,VALID,0,VALID,97.2688,VALID,0,VALID,20.4318,VALID,22,VALID,0.56179,
2002-06-28, 03:11:00,VALID,918.792,VALID,0,VALID,97.2256,VALID,0,VALID,20.4345,VALID,8,VALID,0.635714,
2002-06-28, 03:12:00,VALID,918.769,VALID,0,VALID,97.1608,VALID,0.0169808,VALID,20.4345,VALID,11,VALID,0.418555,
2002-06-28, 03:13:00,VALID,918.751,VALID,0,VALID,97.2294,VALID,0.0169808,VALID,20.4345,VALID,13,VALID,0.222098,
2002-06-28, 03:14:00,VALID,918.742,VALID,0,VALID,97.204,VALID,0,VALID,20.4474,VALID,13,VALID,0.0523897,
2002-06-28, 03:15:00,VALID,918.729,VALID,0,VALID,97.2053,VALID,0,VALID,20.4447,VALID,13,VALID,0.000585938,
2002-06-28, 03:16:00,VALID,918.72,VALID,0,VALID,97.232,VALID,0,VALID,20.4544,VALID,234,VALID,0.380445,
2002-06-28, 03:17:00,VALID,918.722,VALID,0,VALID,97.246,VALID,0,VALID,20.441,VALID,192,VALID,0.544866,
2002-06-28, 03:18:00,VALID,918.717,VALID,0,VALID,97.3045,VALID,-0.0169808,VALID,20.4641,VALID,190,VALID,0.452734,
2002-06-28, 03:19:00,VALID,918.714,VALID,0,VALID,97.3184,VALID,0,VALID,20.4571,VALID,195,VALID,0.185491,
2002-06-28, 03:20:00,VALID,918.712,VALID,0,VALID,97.3261,VALID,0,VALID,20.4606,VALID,197,VALID,0.133272,
2002-06-28, 03:21:00,VALID,918.699,VALID,0,VALID,97.2981,VALID,-0.0169808,VALID,20.4644,VALID,197,VALID,0.0251953,
2002-06-28, 03:22:00,VALID,918.658,VALID,0,VALID,97.307,VALID,0,VALID,20.4673,VALID,197,VALID,0.00142045,
2002-06-28, 03:23:00,VALID,918.613,VALID,0,VALID,97.2688,VALID,0.0169808,VALID,20.477,VALID,195,VALID,0.114063,
2002-06-28, 03:24:00,VALID,918.597,VALID,0,VALID,97.251,VALID,0.0169808,VALID,20.4539,VALID,61,VALID,0.405078,
2002-06-28, 03:25:00,VALID,918.579,VALID,0,VALID,97.2472,VALID,0,VALID,20.4706,VALID,25,VALID,0.347545,
2002-06-28, 03:26:00,VALID,918.552,VALID,0,VALID,97.1748,VALID,-0.0339617,VALID,20.4574,VALID,26,VALID,0.380285,
2002-06-28, 03:27:00,VALID,918.533,VALID,0,VALID,97.0552,VALID,0,VALID,20.441,VALID,26,VALID,0.0755859,
2002-06-28, 03:28:00,VALID,918.511,VALID,0,VALID,97.0565,VALID,0,VALID,20.4442,VALID,26,VALID,0,
2002-06-28, 03:29:00,VALID,918.482,VALID,0,VALID,97.0679,VALID,0,VALID,20.4544,VALID,33,VALID,0.133259,
2002-06-28, 03:30:00,VALID,918.452,VALID,0,VALID,97.0387,VALID,-0.0169808,VALID,20.4477,VALID,45,VALID,0.210156,
2002-06-28, 03:31:00,VALID,918.444,VALID,0,VALID,97.0667,VALID,-0.0169808,VALID,20.4539,VALID,38,VALID,0.108929,
2002-06-28, 03:32:00,VALID,918.435,VALID,0,VALID,96.942,VALID,0.0339617,VALID,20.4412,VALID,35,VALID,0.335478,
2002-06-28, 03:33:00,VALID,918.404,VALID,0,VALID,96.9001,VALID,0,VALID,20.4221,VALID,17,VALID,0.601367,
2002-06-28, 03:34:00,VALID,918.391,VALID,0,VALID,96.778,VALID,0,VALID,20.3963,VALID,14,VALID,0.706913,
2002-06-28, 03:35:00,VALID,918.407,VALID,0,VALID,96.7132,VALID,0,VALID,20.3602,VALID,8,VALID,0.668304,
2002-06-28, 03:36:00,VALID,918.418,VALID,0,VALID,96.7818,VALID,0.0169808,VALID,20.3505,VALID,8,VALID,0.397852,